Stampede Pass, WA

3:06 AM PDT on June 23, 2017 (GMT -0700)
Stampede Pass

Weather History for KSMP - October, 2010

Change the Weather History Date:

Monday, October 18, 2010

  Actual Average Record
Temperature  
Mean Temperature 46 °F -  
Max Temperature 53 °F 45 °F 60 °F (2003)
Min Temperature 39 °F 34 °F 30 °F (1996)
Degree Days  
Heating Degree Days 20    
Moisture  
Dew Point 29 °F    
Average Humidity 53    
Maximum Humidity 76    
Minimum Humidity 36    
Precipitation  
Precipitation 0.00 in - - ()
Sea Level Pressure  
Sea Level Pressure 30.27 in    
Wind  
Wind Speed 2 mph (WSW)    
Max Wind Speed 6 mph    
Max Gust Speed -    
Visibility 10 miles    
Events      
Averages and records for this station are not official NWS values.
T = Trace of Precipitation, MM = Missing Value Source: NWS Daily Summary

Daily Weather History Graph

Daily Weather History Graph

Search for Another Location

Airport or City:

Trip Planner

Search our weather history database for the weather conditions in past years. The results will help you decide how hot, cold, wet, or windy it might be!

Date:

Astronomy

Oct. 18, 2010 Rise Set
Actual Time 7:28 AM PDT 6:11 PM PDT
Civil Twilight 6:57 AM PDT 6:42 PM PDT
Nautical Twilight 6:21 AM PDT 7:18 PM PDT
Astronomical Twilight 5:46 AM PDT 7:53 PM PDT
Moon 4:11 PM PDT (10/18) 3:06 AM PDT (10/18)
Length of Visible Light 11h 45m
Length of Day
10h 43m
Waxing Gibbous, 84% of the Moon is Illuminated
Oct 18
Waxing Gibbous
Oct 22
Full
Oct 30
Last Quarter
Nov 5
New
Nov 13
First Quarter

Hourly Weather History & Observations

Time (PDT) Temp. Windchill Dew Point Humidity Pressure Visibility Wind Dir Wind Speed Gust Speed Precip Events Conditions
12:56 AM 41.0 °F - 26.1 °F 55% 30.25 in 10.0 mi Calm Calm - N/A   Clear
1:56 AM 42.1 °F - 25.0 °F 51% 30.24 in 10.0 mi Calm Calm - N/A   Clear
2:56 AM 39.9 °F - 26.1 °F 58% 30.25 in 10.0 mi Calm Calm - N/A   Clear
3:56 AM 42.1 °F - 25.0 °F 51% 30.24 in 10.0 mi Calm Calm - N/A   Clear
4:56 AM 44.1 °F - 24.1 °F 45% 30.24 in 10.0 mi Calm Calm - N/A   Clear
5:56 AM 42.1 °F 40.2 °F 25.0 °F 51% 30.27 in 10.0 mi WSW 3.5 mph - N/A   Clear
6:56 AM 42.1 °F 40.2 °F 25.0 °F 51% 30.26 in 10.0 mi SW 3.5 mph - N/A   Clear
7:56 AM 42.1 °F 40.2 °F 26.1 °F 53% 30.28 in 10.0 mi WSW 3.5 mph - N/A   Clear
8:56 AM 42.1 °F 39.2 °F 28.0 °F 58% 30.28 in 10.0 mi WSW 4.6 mph - N/A   Clear
9:56 AM 45.0 °F 43.5 °F 28.9 °F 53% 30.30 in 10.0 mi SW 3.5 mph - N/A   Clear
10:56 AM 45.0 °F 42.6 °F 30.0 °F 56% 30.30 in 10.0 mi WSW 4.6 mph - N/A   Clear
11:56 AM 46.9 °F - 30.0 °F 52% 30.29 in 10.0 mi WSW 5.8 mph - N/A   Clear
12:56 PM 51.1 °F - 25.0 °F 36% 30.28 in 10.0 mi Variable 5.8 mph - N/A   Clear
1:56 PM 52.0 °F - 30.0 °F 43% 30.27 in 10.0 mi Variable 5.8 mph - N/A   Clear
2:56 PM 52.0 °F - 28.0 °F 40% 30.27 in 10.0 mi Variable 4.6 mph - N/A   Clear
3:56 PM 52.0 °F - 32.0 °F 47% 30.26 in 10.0 mi Variable 4.6 mph - N/A   Clear
4:56 PM 48.9 °F - 34.0 °F 56% 30.25 in 10.0 mi WSW 5.8 mph - N/A   Clear
5:56 PM 45.0 °F 41.8 °F 36.0 °F 71% 30.27 in 10.0 mi SW 5.8 mph - N/A   Clear
6:56 PM 43.0 °F 40.3 °F 36.0 °F 76% 30.28 in 10.0 mi WSW 4.6 mph - N/A   Clear
7:56 PM 44.1 °F 41.5 °F 35.1 °F 71% 30.29 in 10.0 mi SW 4.6 mph - N/A   Clear
8:56 PM 44.1 °F 41.5 °F 33.1 °F 65% 30.29 in 10.0 mi WSW 4.6 mph - N/A   Clear
9:56 PM 45.0 °F 43.5 °F 30.0 °F 56% 30.28 in 10.0 mi WSW 3.5 mph - N/A   Clear
10:56 PM 46.0 °F 44.8 °F 26.1 °F 46% 30.27 in 10.0 mi WSW 3.5 mph - N/A   Clear
11:56 PM 48.0 °F - 26.1 °F 42% 30.26 in 10.0 mi Calm Calm - N/A   Clear